[[{"header":{"parameterUnit":"m.s-1","parameterCategory":1,"la1":30.2992,"la2":30.254,"lo1":-89.0895,"lo2":-89.0443,"dy":0.0025,"dx":0.0025,"nx":19,"ny":19,"refTime":"2026-05-07T21:00:00:Z","depth":0,"parameterNumber":2,"parameterNumberName":"U-component_of_WINDS"},"data":[0,0,0,0.5039,0.5042,0.5177,0.5178,0.5346,0.5348,0,0,0,0,0,0,0,0,0,0,0,0.4995,0.4996,0.5039,0.5042,0.5177,0.5178,0.5346,0.5348,0,0,0,0,0,0,0,0,0,0,0,0.4995,0.4996,0.4997,0.5043,0.5177,0.5178,0.5346,0.5246,0,0,0,0,0,0,0,0,0,0,0.5116,0.507,0.4996,0.4997,0.5044,0.5177,0.5178,0.5241,0.5252,0.5283,0,0.5307,0,0.533,0.5358,0.5359,0,0,0,0.5046,0.5061,0.5101,0.4997,0.5045,0.5176,0.5117,0.5247,0.526,0.5297,0.531,0.5316,0.5333,0.536,0.536,0.5519,0.552,0,0,0.5039,0.5018,0.5092,0.5109,0.5085,0.5113,0.5121,0.5255,0.5268,0.531,0.532,0.5335,0.5361,0.5362,0.5519,0.5519,0,0,0,0.5015,0.5012,0.5049,0.5102,0.5126,0.5117,0.5127,0.5262,0.5276,0.5322,0.5337,0.5362,0.5364,0.5518,0.5519,0.5525,0,0,0,0.501,0.4998,0.5046,0.5034,0.5123,0.5195,0.5131,0.5266,0.5282,0.5337,0.5362,0.5365,0.5518,0.5519,0.5524,0.5532,0,0,0,0.4988,0.4996,0.5014,0.5033,0.509,0.5194,0.5215,0.527,0.5291,0.5359,0.5366,0.5517,0.5518,0.5522,0.553,0.5567,0,0,0,0.4959,0.5019,0.5013,0.5087,0.5088,0.5195,0.5214,0.5296,0.5355,0.5362,0.5518,0.5519,0.5522,0.5529,0.5566,0.5595,0.5605,0,0,0.5024,0.5026,0.5071,0.507,0.5172,0.5177,0.5281,0.5356,0.5383,0.5473,0.5477,0.5524,0.553,0.5567,0.5667,0.5675,0,0,0,0.5085,0.5117,0.5149,0.5202,0.5259,0.5309,0.537,0.5397,0.5474,0.5424,0.5548,0.5553,0.5575,0.559,0.5597,0.5617,0.5525,0.5525,0.5524,0.5148,0.5177,0.5253,0.5297,0.5349,0.541,0.5455,0.5503,0.5519,0.5548,0.5575,0.5632,0.5648,0.5653,0.5674,0.5592,0.5592,0.5592,0.5592,0.5246,0.5296,0.5313,0.5392,0.5423,0.5491,0.5552,0.556,0.5629,0.5614,0.5636,0.5617,0.5661,0.5681,0.5593,0.5593,0.5593,0.5593,0.5593,0.5291,0.532,0.535,0.543,0.5488,0.5531,0.5595,0.5621,0.5647,0.5668,0.5699,0.5699,0.5702,0.568,0.5681,0.5681,0.5681,0.5681,0.5681,0.5325,0.536,0.541,0.5473,0.551,0.5563,0.5623,0.5661,0.5709,0.5723,0.5724,0.5736,0.5659,0.5639,0.5684,0.5684,0.5683,0.5683,0.5683,0.5415,0.5398,0.5475,0.5512,0.5588,0.5644,0.5675,0.575,0.5785,0.5816,0.5823,0.5761,0.5767,0.5762,0.5746,0.5816,0.5816,0.5816,0.5816,0.5452,0.5457,0.5541,0.5598,0.5657,0.5692,0.5779,0.5826,0.5873,0.5896,0.5889,0.587,0.5863,0.5873,0.5866,0.5851,0.5947,0.5947,0.5947,0.5509,0.552,0.5588,0.5631,0.5693,0.5745,0.5827,0.5893,0.5943,0.5953,0.5915,0.591,0.5878,0.5866,0.5877,0.5865,0.5838,0,0]},{"header":{"parameterUnit":"m.s-1","parameterCategory":1,"la1":30.2992,"la2":30.254,"lo1":-89.0895,"lo2":-89.0443,"dy":0.0025,"dx":0.0025,"nx":19,"ny":19,"refTime":"2026-05-07T21:00:00:Z","depth":0,"parameterNumber":3,"parameterNumberName":"V-component_of_WINDS"},"data":[0,0,0,4.7693,4.7695,4.7766,4.7766,4.7855,4.7855,0,0,0,0,0,0,0,0,0,0,0,4.7673,4.7674,4.7693,4.7695,4.7766,4.7766,4.7855,4.7855,0,0,0,0,0,0,0,0,0,0,0,4.7673,4.7673,4.7674,4.7695,4.7766,4.7766,4.7854,4.7801,0,0,0,0,0,0,0,0,0,0,4.7732,4.7715,4.7673,4.7674,4.7695,4.7766,4.7766,4.7798,4.7804,4.7822,0,4.7841,0,4.785,4.7861,4.7862,0,0,0,4.7693,4.771,4.7729,4.7674,4.7696,4.7766,4.7733,4.7802,4.7808,4.783,4.7842,4.7845,4.7851,4.7862,4.7863,4.7978,4.7979,0,0,4.7689,4.7686,4.7724,4.7733,4.7725,4.7731,4.7736,4.7806,4.7817,4.7842,4.7847,4.7853,4.7863,4.7863,4.7977,4.7978,0,0,0,4.7679,4.7683,4.77,4.773,4.7743,4.7733,4.7738,4.7814,4.782,4.7848,4.7854,4.7863,4.7864,4.7977,4.7978,4.8006,0,0,0,4.7676,4.7677,4.7698,4.7697,4.7742,4.778,4.7746,4.7815,4.7824,4.7853,4.7863,4.7865,4.7976,4.7977,4.8004,4.802,0,0,0,4.7668,4.7676,4.7687,4.7696,4.7727,4.7779,4.7789,4.7817,4.7827,4.7862,4.7865,4.7976,4.7977,4.8002,4.8017,4.805,0,0,0,4.7657,4.771,4.7687,4.7748,4.7727,4.7797,4.7789,4.784,4.7874,4.7864,4.7976,4.7978,4.8002,4.8015,4.8048,4.8078,4.809,0,0,4.7722,4.7717,4.7754,4.7736,4.781,4.7786,4.7863,4.7896,4.79,4.7951,4.7954,4.8005,4.8017,4.8049,4.8159,4.8169,0,0,0,4.7773,4.7799,4.7819,4.7853,4.788,4.7905,4.7926,4.7938,4.7982,4.7927,4.8026,4.8033,4.8052,4.8066,4.8075,4.8091,4.7984,4.7984,4.7984,4.7859,4.7865,4.7925,4.794,4.7971,4.7994,4.8019,4.8039,4.8033,4.8056,4.8071,4.8138,4.8154,4.816,4.8178,4.8087,4.8087,4.8088,4.8088,4.7954,4.7992,4.7986,4.8042,4.8047,4.8093,4.8115,4.811,4.8152,4.8126,4.8144,4.8115,4.8171,4.8186,4.809,4.8089,4.8089,4.8089,4.8089,4.8012,4.8031,4.8046,4.8095,4.8132,4.8143,4.8185,4.8187,4.8188,4.8206,4.8222,4.8221,4.8221,4.8213,4.8214,4.8214,4.8214,4.8214,4.8214,4.8065,4.8082,4.8118,4.8153,4.8175,4.8203,4.8226,4.8246,4.8269,4.8267,4.8267,4.8259,4.8176,4.8155,4.8218,4.8217,4.8217,4.8216,4.8216,4.816,4.8139,4.8195,4.8218,4.8258,4.8294,4.8296,4.8338,4.8355,4.8375,4.8363,4.8302,4.8297,4.829,4.8273,4.8362,4.8362,4.8362,4.8362,4.8208,4.8207,4.8265,4.83,4.8334,4.8343,4.8404,4.8421,4.8435,4.8446,4.8433,4.841,4.8404,4.8402,4.8393,4.8377,4.8491,4.8491,4.8492,4.8267,4.8269,4.8322,4.8339,4.8371,4.8397,4.8454,4.8492,4.8504,4.8497,4.8454,4.8448,4.8412,4.84,4.8391,4.8377,4.8348,0,0]}]]